This is the latest recevied weather packets stored in our database for station/object OE3APM-13. If no packets are shown the sender has not sent any weather packets the latest 10 day(s).
| Time | Temp. | Humidity | Pressure | Rain* | Wind** | Luminosity | Snow |
|---|---|---|---|---|---|---|---|
| 1777725871 | 23.33° C | 27% | 1022.3 hPa | 0 mm | - | 751 W/m² | - |
| 1777725571 | 23.33° C | 28% | 1022.3 hPa | 0 mm | - | 765 W/m² | - |
| 1777725270 | 22.78° C | 27% | 1022.4 hPa | 0 mm | - | 773 W/m² | - |
| 1777724973 | 22.78° C | 30% | 1022.5 hPa | 0 mm | - | 780 W/m² | - |
| 1777724670 | 22.78° C | 30% | 1022.6 hPa | 0 mm | - | 786 W/m² | - |
| 1777724369 | 23.33° C | 30% | 1022.7 hPa | 0 mm | - | 788 W/m² | - |
| 1777724059 | 23.33° C | 31% | 1022.7 hPa | 0 mm | - | 793 W/m² | - |
| 1777723753 | 23.33° C | 28% | 1022.7 hPa | 0 mm | - | 803 W/m² | - |
| 1777723445 | 23.33° C | 30% | 1022.8 hPa | 0 mm | - | 809 W/m² | - |
| 1777723149 | 23.33° C | 28% | 1022.9 hPa | 0 mm | - | 817 W/m² | - |
| 1777722844 | 22.78° C | 29% | 1023 hPa | 0 mm | - | 826 W/m² | - |
| 1777722546 | 22.78° C | 27% | 1022.9 hPa | 0 mm | - | 831 W/m² | - |
| 1777722246 | 22.78° C | 29% | 1023 hPa | 0 mm | - | 838 W/m² | - |
| 1777721946 | 22.22° C | 31% | 1023.1 hPa | 0 mm | - | 838 W/m² | - |
| 1777721647 | 22.22° C | 29% | 1023.2 hPa | 0 mm | - | 840 W/m² | - |
| 1777721345 | 22.22° C | 31% | 1023.2 hPa | 0 mm | - | 842 W/m² | - |
| 1777721046 | 22.22° C | 34% | 1023.3 hPa | 0 mm | - | 842 W/m² | - |
| 1777720747 | 22.22° C | 30% | 1023.4 hPa | 0 mm | - | 844 W/m² | - |
| 1777720443 | 22.22° C | 29% | 1023.4 hPa | 0 mm | - | 849 W/m² | - |
| 1777720145 | 22.22° C | 35% | 1023.4 hPa | 0 mm | - | 851 W/m² | - |
| 1777719844 | 21.67° C | 32% | 1023.5 hPa | 0 mm | - | 854 W/m² | - |
| 1777719544 | 21.67° C | 33% | 1023.5 hPa | 0 mm | - | 856 W/m² | - |
| 1777719243 | 21.67° C | 30% | 1023.6 hPa | 0 mm | - | 849 W/m² | - |
| 1777718944 | 21.67° C | 30% | 1023.6 hPa | 0 mm | - | 854 W/m² | - |
| 1777718645 | 21.67° C | 29% | 1023.7 hPa | 0 mm | - | 865 W/m² | - |
* Rain latest hour (hover to see other rain measurements)
** Current wind speed in m/s (hover to see current wind gust speed)